* Astronomy

Members Login
Post Info TOPIC: Asteroid 2010 EC46


L

Posts: 131433
Date:
Asteroid 2010 EC46
Permalink  
 


Orbital elements:
2010 EC46 PHA, Earth MOID = 0.0267 AU
Epoch 2010 Mar. 5.0 TT = JDT 2455260.5 MPC
M 253.63152 (2000.0) P Q
n 0.51343494 Peri. 323.07339 +0.72223502 +0.67980771
a 1.5445872 Node 350.32658 -0.29620183 +0.13751703
e 0.4036290 Incl. 49.31976 -0.62501284 +0.72038222
P 1.92 H 20.1 G 0.15
From 8 observations 2010 Mar. 13-13.

MPEC 2010 - F13


__________________
Page 1 of 1  sorted by
 
Quick Reply

Please log in to post quick replies.



Create your own FREE Forum
Report Abuse
Powered by ActiveBoard